Weather History for Coatesville, PA

Change the Weather History Date:

Sunday, November 17, 2013

  Actual Average (KLNS) Record (KLNS)
Temperature  
Mean Temperature 56 °F -  
Max Temperature 64 °F 52 °F 69 °F (1987)
Min Temperature 48 °F 32 °F 21 °F (1976)
Degree Days  
Heating Degree Days 9    
Growing Degree Days 6 (Base 50)    
Moisture  
Dew Point 53 °F    
Average Humidity 93    
Maximum Humidity 100    
Minimum Humidity 68    
Precipitation  
Precipitation 0.00 in - - ()
Sea Level Pressure  
Sea Level Pressure 30.09 in    
Wind  
Wind Speed 3 mph (SSE)    
Max Wind Speed 10 mph    
Max Gust Speed 21 mph    
Visibility 6 miles    
Events Fog , Rain    
Averages and records for this station are not official NWS values.
T = Trace of Precipitation, MM = Missing Value Source: NWS Daily Summary

Daily Weather History Graph

Daily Weather History Graph

Search for Another Location

Airport:

Trip Planner

Search our weather history database for the weather conditions in past years. The results will help you decide how hot, cold, wet, or windy it might be!

Date:

Astronomy

Nov. 17, 2013 Rise Set
Actual Time 6:51 AM EST 4:45 PM EST
Civil Twilight 6:21 AM EST 5:14 PM EST
Nautical Twilight 5:49 AM EST 5:47 PM EST
Astronomical Twilight 5:16 AM EST 6:19 PM EST
Moon 5:00 PM EST (11/17) 6:42 AM EST (11/17)
Length of Visible Light 10h 52m
Length of Day
9h 54m
Full, 100% of the Moon is Illuminated
Nov 17
Full
Nov 25
Last Quarter
Dec 2
New
Dec 9
First Quarter
Dec 17
Full

Hourly Weather History & Observations

Time (EST) Temp. Dew Point Humidity Pressure Visibility Wind Dir Wind Speed Gust Speed Precip Events Conditions
12:15 AM 48.2 °F 48.2 °F 100% 30.27 in 2.5 mi Calm Calm - N/A   Overcast
12:35 AM 48.2 °F 48.2 °F 100% 30.27 in 2.0 mi ESE 3.5 mph - N/A   Overcast
12:55 AM 48.2 °F 48.2 °F 100% 30.26 in 1.2 mi SE 3.5 mph - N/A   Overcast
1:15 AM 48.2 °F 48.2 °F 100% 30.25 in 1.0 mi Calm Calm - N/A   Overcast
1:35 AM 48.2 °F 48.2 °F 100% 30.24 in 1.5 mi Calm Calm - N/A   Overcast
1:55 AM 48.2 °F 48.2 °F 100% 30.24 in 2.5 mi Calm Calm - N/A   Overcast
2:15 AM 48.2 °F 48.2 °F 100% 30.24 in 2.0 mi Calm Calm - N/A   Overcast
2:35 AM 48.2 °F 48.2 °F 100% 30.25 in 2.0 mi Calm Calm - N/A   Overcast
2:55 AM 48.2 °F 48.2 °F 100% 30.24 in 2.0 mi Calm Calm - N/A   Overcast
3:15 AM 48.2 °F 48.2 °F 100% 30.23 in 2.0 mi Calm Calm - N/A   Overcast
3:35 AM 48.2 °F 48.2 °F 100% 30.22 in 1.5 mi Calm Calm - N/A   Overcast
3:55 AM 50.0 °F 48.2 °F 94% 30.22 in 0.8 mi Calm Calm - N/A   Overcast
4:15 AM 50.0 °F 50.0 °F 100% 30.23 in 0.5 mi East 3.5 mph - N/A Fog Fog
4:35 AM 50.0 °F 50.0 °F 100% 30.21 in 0.2 mi East 5.8 mph - N/A Fog Fog
4:55 AM 50.0 °F 50.0 °F 100% 30.20 in 0.2 mi East 8.1 mph - N/A Fog Fog
5:15 AM 48.2 °F 48.2 °F 100% 30.21 in 0.2 mi SE 3.5 mph - N/A Fog Fog
5:35 AM 48.2 °F 48.2 °F 100% 30.20 in 0.2 mi ESE 6.9 mph - N/A Fog Fog
5:55 AM 48.2 °F 48.2 °F 100% 30.19 in 0.2 mi East 5.8 mph - N/A Fog Fog
6:15 AM 48.2 °F 48.2 °F 100% 30.20 in 0.2 mi Calm Calm - N/A Fog Fog
6:35 AM 48.2 °F 48.2 °F 100% 30.19 in 0.2 mi Calm Calm - N/A Fog Fog
6:55 AM 48.2 °F 48.2 °F 100% 30.19 in 0.2 mi Calm Calm - N/A Fog Fog
7:15 AM 48.2 °F 48.2 °F 100% 30.19 in 0.2 mi Calm Calm - N/A Fog Fog
7:35 AM 50.0 °F 50.0 °F 100% 30.19 in 0.2 mi Calm Calm - N/A Fog Fog
7:55 AM 50.0 °F 50.0 °F 100% 30.20 in 0.2 mi Calm Calm - N/A Fog Fog
8:15 AM 51.8 °F 51.8 °F 100% 30.19 in 0.2 mi Calm Calm - N/A Fog Fog
8:35 AM 51.8 °F 51.8 °F 100% 30.19 in 0.2 mi SE 3.5 mph - N/A Fog Fog
8:55 AM 51.8 °F 51.8 °F 100% 30.20 in 0.2 mi ESE 3.5 mph - N/A Fog Fog
9:15 AM 51.8 °F 51.8 °F 100% 30.19 in 0.2 mi SE 4.6 mph - N/A Fog Fog
9:35 AM 53.6 °F 53.6 °F 100% 30.19 in 0.2 mi SE 4.6 mph - N/A Fog Fog
9:55 AM 53.6 °F 53.6 °F 100% 30.19 in 0.2 mi SE 3.5 mph - N/A Fog Fog
10:15 AM 53.6 °F 53.6 °F 100% 30.19 in 0.8 mi SSE 3.5 mph - N/A   Overcast
10:35 AM 55.4 °F 55.4 °F 100% 30.18 in 3.0 mi South 3.5 mph - N/A   Overcast
10:55 AM 55.4 °F 55.4 °F 100% 30.17 in 5.0 mi SSW 4.6 mph - N/A   Overcast
11:15 AM 57.2 °F 57.2 °F 100% 30.15 in 10.0 mi South 5.8 mph - N/A   Overcast
11:35 AM 57.2 °F 57.2 °F 100% 30.14 in 10.0 mi SSE 5.8 mph - N/A   Overcast
11:55 AM 57.2 °F 57.2 °F 100% 30.13 in 10.0 mi Calm Calm - N/A   Overcast
12:15 PM 60.8 °F 55.4 °F 82% 30.12 in 10.0 mi SW 4.6 mph - N/A   Overcast
12:35 PM 60.8 °F 55.4 °F 82% 30.12 in 10.0 mi SSW 3.5 mph - N/A   Overcast
12:55 PM 60.8 °F 55.4 °F 82% 30.11 in 10.0 mi South 6.9 mph - N/A   Overcast
1:15 PM 62.6 °F 53.6 °F 72% 30.09 in 10.0 mi South 6.9 mph - N/A   Overcast
1:35 PM 62.6 °F 53.6 °F 72% 30.08 in 10.0 mi South 6.9 mph - N/A   Overcast
1:55 PM 62.6 °F 53.6 °F 72% 30.07 in 10.0 mi South 6.9 mph - N/A   Overcast
2:15 PM 62.6 °F 53.6 °F 72% 30.06 in 10.0 mi South 6.9 mph - N/A   Mostly Cloudy
2:35 PM 62.6 °F 53.6 °F 72% 30.05 in 10.0 mi SSW 9.2 mph - N/A   Mostly Cloudy
2:55 PM 64.4 °F 53.6 °F 68% 30.04 in 10.0 mi SSE 9.2 mph - N/A   Scattered Clouds
3:15 PM 62.6 °F 53.6 °F 72% 30.04 in 10.0 mi SE 3.5 mph - N/A   Partly Cloudy
3:35 PM 62.6 °F 53.6 °F 72% 30.03 in 10.0 mi South 4.6 mph - N/A   Scattered Clouds
3:55 PM 62.6 °F 53.6 °F 72% 30.02 in 10.0 mi South 5.8 mph - N/A   Partly Cloudy
4:15 PM 60.8 °F 53.6 °F 77% 30.01 in 10.0 mi SE 4.6 mph - N/A   Clear
4:35 PM 60.8 °F 53.6 °F 77% 30.00 in 10.0 mi SSE 3.5 mph - N/A   Clear
4:55 PM 60.8 °F 55.4 °F 82% 29.99 in 10.0 mi SSE 4.6 mph - N/A   Clear
5:15 PM 59.0 °F 55.4 °F 88% 29.99 in 10.0 mi SE 4.6 mph - N/A   Clear
5:35 PM 59.0 °F 55.4 °F 88% 29.99 in 10.0 mi SE 6.9 mph - N/A   Clear
5:55 PM 57.2 °F 55.4 °F 94% 29.99 in 10.0 mi SSE 5.8 mph - N/A   Clear
6:15 PM 57.2 °F 55.4 °F 94% 29.98 in 10.0 mi SSE 8.1 mph - N/A   Clear
6:35 PM 57.2 °F 55.4 °F 94% 29.96 in 10.0 mi SSE 5.8 mph - N/A   Clear
6:55 PM 57.2 °F 55.4 °F 94% 29.95 in 10.0 mi SE 5.8 mph - N/A   Clear
7:15 PM 57.2 °F 55.4 °F 94% 29.95 in 10.0 mi SSE 4.6 mph - N/A   Scattered Clouds
7:35 PM 57.2 °F 55.4 °F 94% 29.94 in 10.0 mi SSE 6.9 mph - N/A   Overcast
7:55 PM 57.2 °F 55.4 °F 94% 29.93 in 10.0 mi SSE 8.1 mph - N/A   Mostly Cloudy
8:15 PM 57.2 °F 55.4 °F 94% 29.92 in 10.0 mi SSE 6.9 mph - N/A   Mostly Cloudy
8:35 PM 57.2 °F 55.4 °F 94% 29.91 in 10.0 mi SSE 8.1 mph - N/A   Mostly Cloudy
8:55 PM 57.2 °F 55.4 °F 94% 29.90 in 10.0 mi South 6.9 mph - N/A   Scattered Clouds
9:15 PM 57.2 °F 55.4 °F 94% 29.88 in 10.0 mi South 6.9 mph - N/A   Mostly Cloudy
9:35 PM 57.2 °F 55.4 °F 94% 29.87 in 10.0 mi South 6.9 mph - N/A   Overcast
9:55 PM 57.2 °F 55.4 °F 94% 29.85 in 10.0 mi SSE 8.1 mph - N/A   Mostly Cloudy
10:15 PM 57.2 °F 57.2 °F 100% 29.83 in 10.0 mi SSE 10.4 mph - N/A   Mostly Cloudy
10:35 PM 57.2 °F 57.2 °F 100% 29.83 in 10.0 mi SSE 6.9 mph 17.3 mph N/A   Overcast
10:55 PM 57.2 °F 57.2 °F 100% 29.81 in 10.0 mi SSE 8.1 mph - N/A   Overcast
11:15 PM 59.0 °F 57.2 °F 94% 29.81 in 10.0 mi South 6.9 mph 17.3 mph N/A   Overcast
11:35 PM 59.0 °F 57.2 °F 94% 29.80 in 10.0 mi South 9.2 mph 20.7 mph N/A   Overcast
11:55 PM 60.8 °F 59.0 °F 94% 29.77 in 8.0 mi South 10.4 mph 17.3 mph N/A Rain Light Rain